Hooper Bay, AK

12:03 PM AKST on November 18, 2019 (GMT -0900)
Hooper Bay

Weather History for PAHP - October, 2019

Change the Weather History Date:

Wednesday, October 16, 2019

  Actual Average Record
Temperature  
Mean Temperature 33 °F -  
Max Temperature 37 °F 32 °F 51 °F (2007)
Min Temperature 28 °F 25 °F 19 °F (2001)
Degree Days  
Heating Degree Days 32    
Moisture  
Dew Point 31 °F    
Average Humidity 96    
Maximum Humidity 100    
Minimum Humidity 89    
Precipitation  
Precipitation 0.00 in - - ()
Sea Level Pressure  
Sea Level Pressure 29.06 in    
Wind  
Wind Speed 14 mph (ENE)    
Max Wind Speed 21 mph    
Max Gust Speed 23 mph    
Visibility 3 miles    
Events Fog , Snow    
Averages and records for this station are not official NWS values.
T = Trace of Precipitation, MM = Missing Value Source: NWS Daily Summary

Daily Weather History Graph

Daily Weather History Graph

Search for Another Location

Airport or City:

Astronomy

Oct. 16, 2019 Rise Set
Actual Time 9:50 AM AKDT 7:48 PM AKDT
Civil Twilight 9:05 AM AKDT 8:33 PM AKDT
Nautical Twilight 8:15 AM AKDT 9:23 PM AKDT
Astronomical Twilight 7:24 AM AKDT 10:14 PM AKDT
Moon 9:04 PM AKDT (10/16) 1:14 PM AKDT (10/16)
Length of Visible Light 11h 27m
Length of Day
9h 58m
Waning Gibbous, 92% of the Moon is Illuminated
Oct 16
Waning Gibbous
Oct 21
Last Quarter
Oct 27
New
Nov 4
First Quarter
Nov 12
Full

Hourly Weather History & Observations

Time (AKDT) Temp. Windchill Dew Point Humidity Pressure Visibility Wind Dir Wind Speed Gust Speed Precip Events Conditions
12:56 AM 36.0 °F 30.3 °F 33.1 °F 89% 29.14 in 10.0 mi ESE 6.9 mph - N/A   Mostly Cloudy
1:56 AM 36.0 °F 28.0 °F 34.0 °F 93% 29.13 in 5.0 mi ESE 11.5 mph - N/A   Partly Cloudy
2:56 AM 35.1 °F 27.9 °F 33.1 °F 92% 29.12 in 6.0 mi ESE 9.2 mph - N/A   Clear
3:56 AM 35.1 °F 27.4 °F 34.0 °F 96% 29.11 in 6.0 mi ESE 10.4 mph - N/A   Clear
4:56 AM 30.9 °F 22.2 °F 30.0 °F 96% 29.08 in 10.0 mi ENE 10.4 mph - N/A   Clear
5:32 AM 30.2 °F 20.2 °F 28.4 °F 93% 29.08 in 2.0 mi ENE 12.7 mph - 0.00 in Snow Light Snow
5:45 AM 30.2 °F 19.3 °F 30.2 °F 100% 29.08 in 4.0 mi ENE 15.0 mph - 0.00 in   Partly Cloudy
5:52 AM 30.2 °F 19.8 °F 30.2 °F 100% 29.08 in 1.8 mi ENE 13.8 mph - 0.00 in   Scattered Clouds
5:56 AM 30.0 °F 20.5 °F 30.0 °F 100% 29.08 in 1.2 mi ENE 11.5 mph - 0.00 in Snow Light Snow
6:01 AM 30.2 °F 19.8 °F 30.2 °F 100% 29.07 in 0.8 mi ENE 13.8 mph - 0.00 in Snow Light Snow
6:09 AM 30.2 °F 20.2 °F 30.2 °F 100% 29.08 in 1.2 mi ENE 12.7 mph - 0.00 in   Mostly Cloudy
6:23 AM 30.2 °F 19.8 °F 30.2 °F 100% 29.08 in 0.8 mi ENE 13.8 mph - 0.00 in   Mostly Cloudy
6:56 AM 30.0 °F 18.7 °F 28.9 °F 96% 29.07 in 0.8 mi ENE 16.1 mph - 0.00 in   Overcast
7:56 AM 30.0 °F 17.5 °F 30.0 °F 100% 29.06 in 0.8 mi ENE 19.6 mph - 0.00 in   Overcast
8:30 AM 30.2 °F 18.1 °F 28.4 °F 93% 29.05 in 0.5 mi ENE 18.4 mph - 0.00 in Fog Light Freezing Fog
8:41 AM 30.2 °F 18.5 °F 28.4 °F 93% 29.05 in 0.8 mi ENE 17.3 mph - 0.00 in   Overcast
8:56 AM 30.0 °F 19.1 °F 28.9 °F 96% 29.05 in 0.8 mi ENE 15.0 mph - 0.00 in   Overcast
9:43 AM 30.2 °F 17.8 °F 28.4 °F 93% 29.04 in 0.5 mi East 19.6 mph - 0.00 in Fog Light Freezing Fog
9:53 AM 30.2 °F 18.9 °F 28.4 °F 93% 29.05 in 0.2 mi ENE 16.1 mph - 0.00 in Fog Light Freezing Fog
9:56 AM 30.0 °F 17.9 °F 28.9 °F 96% 29.05 in 0.2 mi ENE 18.4 mph - 0.00 in Fog Light Freezing Fog
10:38 AM 30.2 °F 17.4 °F 30.2 °F 100% 29.04 in 0.5 mi East 20.7 mph - 0.00 in Fog Light Freezing Fog
10:51 AM 30.2 °F 17.4 °F 28.4 °F 93% 29.04 in 0.2 mi ENE 20.7 mph - 0.00 in Fog Light Freezing Fog
10:56 AM 30.0 °F 17.9 °F 30.0 °F 100% 29.05 in 0.2 mi East 18.4 mph - 0.00 in Fog Light Freezing Fog
11:04 AM 30.2 °F 17.8 °F 30.2 °F 100% 29.04 in 0.5 mi East 19.6 mph - 0.00 in Fog Light Freezing Fog
11:18 AM 30.2 °F 17.8 °F 30.2 °F 100% 29.05 in 0.2 mi ENE 19.6 mph - 0.00 in Fog Light Freezing Fog
11:25 AM 30.2 °F 17.4 °F 30.2 °F 100% 29.05 in 0.5 mi East 20.7 mph - 0.00 in Fog Light Freezing Fog
11:56 AM 30.9 °F 18.7 °F 30.0 °F 96% 29.05 in 0.8 mi ENE 19.6 mph - 0.00 in   Overcast
12:11 PM 30.2 °F 17.8 °F 30.2 °F 100% 29.05 in 0.5 mi ENE 19.6 mph - 0.00 in Fog , Snow Light Snow
12:22 PM 30.2 °F 18.9 °F 30.2 °F 100% 29.04 in 1.0 mi East 16.1 mph 23.0 mph 0.00 in Snow Light Snow
12:34 PM 30.2 °F 18.5 °F 30.2 °F 100% 29.04 in 0.5 mi ENE 17.3 mph - 0.00 in Fog , Snow Light Snow
12:48 PM 30.2 °F 18.1 °F 30.2 °F 100% 29.05 in 1.0 mi East 18.4 mph - 0.00 in Snow Light Snow
12:51 PM 32.0 °F 20.8 °F 30.2 °F 93% 29.04 in 2.5 mi East 17.3 mph - 0.00 in Snow Light Snow
12:54 PM 32.0 °F 21.2 °F 30.2 °F 93% 29.04 in 1.0 mi ENE 16.1 mph - 0.00 in   Overcast
12:56 PM 32.0 °F 20.5 °F 30.9 °F 96% 29.04 in 1.0 mi East 18.4 mph - 0.00 in   Overcast
1:07 PM 32.0 °F 21.2 °F 30.2 °F 93% 29.05 in 2.0 mi East 16.1 mph - N/A   Overcast
1:24 PM 32.0 °F 21.2 °F 32.0 °F 100% 29.05 in 1.2 mi East 16.1 mph - N/A   Overcast
1:29 PM 32.0 °F 20.1 °F 32.0 °F 100% 29.05 in 3.0 mi East 19.6 mph - N/A   Overcast
1:38 PM 32.0 °F 20.5 °F 32.0 °F 100% 29.05 in 1.0 mi ENE 18.4 mph 23.0 mph N/A   Overcast
1:40 PM 32.0 °F 21.2 °F 32.0 °F 100% 29.05 in 0.5 mi ENE 16.1 mph 23.0 mph 0.00 in Fog Fog
1:50 PM 32.0 °F 20.5 °F 30.2 °F 93% 29.04 in 1.0 mi ENE 18.4 mph - 0.00 in   Overcast
1:56 PM 32.0 °F 21.6 °F 30.9 °F 96% 29.04 in 1.2 mi ENE 15.0 mph - 0.00 in   Overcast
2:17 PM 32.0 °F 20.5 °F 32.0 °F 100% 29.05 in 0.8 mi ENE 18.4 mph - 0.00 in   Overcast
2:24 PM 32.0 °F 20.1 °F 32.0 °F 100% 29.04 in 1.2 mi ENE 19.6 mph - 0.00 in   Overcast
2:35 PM 33.8 °F 22.8 °F 32.0 °F 93% 29.05 in 1.0 mi ENE 18.4 mph - 0.00 in   Overcast
2:49 PM 33.8 °F 22.5 °F 33.8 °F 100% 29.04 in 1.0 mi ENE 19.6 mph - 0.00 in   Overcast
2:56 PM 33.1 °F 22.2 °F 32.0 °F 96% 29.05 in 1.0 mi ENE 17.3 mph - 0.00 in   Overcast
3:03 PM 33.8 °F 23.2 °F 33.8 °F 100% 29.04 in 1.5 mi East 17.3 mph - N/A   Overcast
3:40 PM 33.8 °F 23.2 °F 33.8 °F 100% 29.03 in 1.0 mi ENE 17.3 mph - N/A   Overcast
3:50 PM 33.8 °F 23.5 °F 32.0 °F 93% 29.03 in 0.5 mi ENE 16.1 mph - 0.00 in Fog Fog
3:56 PM 33.1 °F 22.2 °F 32.0 °F 96% 29.03 in 0.5 mi ENE 17.3 mph - 0.00 in Fog Fog
4:00 PM 33.8 °F 23.5 °F 32.0 °F 93% 29.03 in 1.0 mi East 16.1 mph - 0.00 in   Overcast
4:05 PM 33.8 °F 23.5 °F 32.0 °F 93% 29.03 in 2.0 mi ENE 16.1 mph - 0.00 in   Overcast
4:13 PM 33.8 °F 23.2 °F 33.8 °F 100% 29.03 in 7.0 mi East 17.3 mph - 0.00 in   Overcast
4:56 PM 34.0 °F 23.4 °F 33.1 °F 96% 29.04 in 10.0 mi ENE 17.3 mph - 0.00 in   Overcast
5:38 PM 35.6 °F 26.6 °F 33.8 °F 93% 29.04 in 10.0 mi East 13.8 mph - N/A   Overcast
5:56 PM 35.1 °F 25.5 °F 34.0 °F 96% 29.04 in 10.0 mi East 15.0 mph - N/A   Overcast
6:56 PM 35.1 °F 24.1 °F 33.1 °F 92% 29.04 in 10.0 mi ENE 19.6 mph 23.0 mph N/A   Mostly Cloudy
7:56 PM 34.0 °F 26.0 °F 32.0 °F 92% 29.04 in 10.0 mi ENE 10.4 mph - N/A   Scattered Clouds
8:56 PM 33.1 °F 24.9 °F 30.9 °F 92% 29.06 in 10.0 mi ENE 10.4 mph - N/A   Mostly Cloudy
9:56 PM 33.1 °F 23.4 °F 30.0 °F 89% 29.07 in 10.0 mi East 13.8 mph - N/A   Overcast
10:39 PM 30.2 °F 20.2 °F 28.4 °F 93% 29.07 in 10.0 mi East 12.7 mph - N/A   Scattered Clouds
10:56 PM 30.9 °F 22.8 °F 28.9 °F 92% 29.08 in 10.0 mi ENE 9.2 mph - N/A   Clear
11:56 PM 28.9 °F 20.4 °F 28.0 °F 96% 29.09 in 10.0 mi NE 9.2 mph - N/A   Clear